International Skating Union - Official Site

ISU World Cup Speed Skating Calgary
December 1-3, 2017

Draw | Lap Times | Index | World Cup

Referee: Bert  TIMMERMAN  (NED)
Starter: Yong-Seok  OH  (KOR)
StartTime: EndTime: Air Temp: Ice Temp: Humidity:
16:18 16:26 15℃ -8.5℃ 29%
Result Mass Start Semi-Final Men 2
Rankings as of Dec 2 2017 6:20PM
Rank: No.: Name: Nation: Sprint Points: Time: Behind: Points:
1 31 Hongli  Wang CHN CHN 62 8:04.46
2 50 Alexis  Contin FRA FRA 45 8:05.39 0.93
3 64 Andrea  Giovannini ITA ITA 28 8:05.55 1.09
4 20 Olivier  Jean CAN CAN 3 8:13.27 8.81
5 79 Shane  Williamson JPN JPN 3 8:27.95 23.49
6 4 Linus  Heidegger AUT AUT 1 8:13.85 9.39
7 163 Joey  Mantia USA USA 8:08.59 4.13
8 128 Reyon  Kay NZL NZL 8:09.27 4.81
9 153 Ruslan  Zakharov RUS RUS 8:10.81 6.35 10
10 132 Roland  Cieslak POL POL 8:10.86 6.40 6
11 42 Stefan Due  Schmidt DEN DEN 8:10.96 6.50 4
12 90 Jaewon  Chung KOR KOR 8:11.08 6.62 2
13 7 Mathias  Vosté BEL BEL 8:12.63 8.17
14 38 Daniel  Zapata COL COL 8:12.68 8.22
15 44 Iñigo  Vidondo ESP ESP 8:13.10 8.64
16 40 Jakub  Kopriva CZE CZE 8:13.64 9.18
17 1 Joshua  Capponi AUS AUS 8:15.16 10.70
18 8 Maksim  Dubouski BLR BLR 8:15.50 11.04
19 154 Oliver  Grob SUI SUI 8:17.61 13.15
20 120 Allan Dahl  Johansson NOR NOR 8:28.64 24.18
21 157 David  Andersson SWE SWE 3:21.86 -282.60
22 117 Koen  Verweij NED NED - DQ
23 82 Maksim  Baklashkin KAZ KAZ - DNS
23 166 Darren Ta-Yuan  Huang TPE TPE - DNS